Regional Weather Roundup
Issued by NWS

Home | Current Version | Previous Version | Graphics & Text | Print | Product List | Glossary Off
Versions: 1 2 3 4 5 6 7 8 9 10 11 12 13 14 15 16 17 18 19 20 21 22 23 24 25 26 27 28 29 30 31 32 33 34 35 36 37 38 39 40 41 42 43 44 45 46 47 48 49 50

000
ASUS43 KTOP 240659
RWRKS

WEATHER ROUNDUP FOR KANSAS
NATIONAL WEATHER SERVICE GOODLAND KS
200 AM CDT TUE OCT 24 2017

NOTE:  "FAIR" INDICATES FEW OR NO CLOUDS BELOW 12,000 FEET WITH NO
SIGNIFICANT WEATHER AND/OR OBSTRUCTIONS TO VISIBILITY.

KSZ001>006-013>018-027>032-041>047-240800-
NORTHWEST KANSAS

CITY           SKY/WX    TMP DP  RH WIND       PRES   REMARKS
GOODLAND       CLEAR     38  21  50 W14       30.43S WCI  30
HAYS           CLEAR     51  21  30 NW20G26   30.30F
HILL CITY      CLEAR     49  23  36 NW18G28   30.34S
RUSSELL        CLEAR     49  24  37 NW17      30.27F
$$

KSZ061>065-074>080-084>089-240800-
SOUTHWEST KANSAS

CITY           SKY/WX    TMP DP  RH WIND       PRES   REMARKS
DODGE CITY     CLEAR     45  21  38 NW14      30.38S
ELKHART          N/A     41  23  48 NW9         N/A
GARDEN CITY    CLEAR     39  22  50 NW10      30.42R WCI  32
GREAT BEND     CLEAR     39  25  57 W8        30.30F
LIBERAL        PTCLDY    40  25  55 NW10      30.44S WCI  33
$$

KSZ066>073-081>083-090>101-240800-
SOUTHEAST KANSAS

CITY           SKY/WX    TMP DP  RH WIND       PRES   REMARKS
CHANUTE        CLEAR     51  34  52 NW10      30.14F
COFFEYVILLE    CLEAR     53  33  46 W10       30.18S
HUTCHINSON     CLEAR     46  30  53 W10       30.25F
MEDICINE LODGE   N/A     44  24  45 N7        30.31S
NEWTON         CLEAR     43  30  60 W9        30.23S
PARSONS        CLEAR     49  33  54 W6        30.17F
WICHITA INTL   CLEAR     50  30  46 NW13      30.23F
WICHITA JABRA  CLEAR     49  31  49 W14       30.22F
WICHITA MCCONL CLEAR     51  28  41 NW10      30.23F
WINFIELD       CLEAR     47  35  63 W9        30.25F
$$

KSZ007>012-019>026-033>040-048>060-102>105-240800-
NORTHEAST KANSAS

CITY           SKY/WX    TMP DP  RH WIND       PRES   REMARKS
CONCORDIA      CLEAR     45  29  53 W13       30.20F
EMPORIA        PTCLDY    47  32  56 W10       30.15F
LAWRENCE       PTCLDY    49  36  61 W12       30.07F
MANHATTAN      CLEAR     51  32  48 W8        30.15F
OLATHE IND     CLOUDY    51  35  54 W16       30.06F
OLATHE EXE     CLOUDY    50  33  52 NW12      30.05F
SALINA         CLEAR     49  30  48 NW14      30.22F
TOPEKA BILLARD CLEAR     50  36  58 W12       30.08F
TOPEKA FORBES  CLEAR     52  34  50 W20G28    30.08F
$$




USA.gov is the U.S. government's official web portal to all federal, state and local government web resources and services.